SWA2210 KLAS-KLAX

Flight info

Callsign SWA2210
Flight time 0h 38m
Altitude 30000
Route RADYR2 BLAQQ SHTNR ANJLL4
Aircraft B738/M-SADE2E3GIJ4RWZ/LB1D1

Departure

Time 2026-05-06 16:34
Airport Harry Reid International Airport (KLAS)

Arrival

Time 2026-05-06 17:12
Airport Los Angeles International Airport (KLAX)
Time Latitude Longitude Altitude Speed Heading
2026-05-06 16:08 36.08528 -115.13621 2064 ft 0 kts
2026-05-06 16:27 36.08520 -115.13620 2083 ft 3 kts
2026-05-06 16:27 36.08500 -115.13623 2083 ft 3 kts 14°
2026-05-06 16:27 36.08481 -115.13631 2084 ft 3 kts 34°
2026-05-06 16:28 36.08468 -115.13646 2085 ft 3 kts 73°
2026-05-06 16:28 36.08466 -115.13656 2085 ft 0 kts 90°
2026-05-06 16:31 36.08466 -115.13654 2085 ft 1 kts 90°
2026-05-06 16:31 36.08466 -115.13608 2085 ft 8 kts 89°
2026-05-06 16:31 36.08466 -115.13531 2084 ft 9 kts 90°
2026-05-06 16:31 36.08463 -115.13478 2084 ft 9 kts 103°
2026-05-06 16:32 36.08429 -115.13414 2086 ft 9 kts 134°
2026-05-06 16:32 36.08377 -115.13378 2089 ft 10 kts 173°
2026-05-06 16:32 36.08295 -115.13374 2096 ft 13 kts 181°
2026-05-06 16:32 36.08191 -115.13374 2104 ft 15 kts 179°
2026-05-06 16:33 36.08051 -115.13373 2113 ft 25 kts 180°
2026-05-06 16:33 36.07885 -115.13374 2123 ft 23 kts 180°
2026-05-06 16:33 36.07728 -115.13380 2129 ft 22 kts 185°
2026-05-06 16:34 36.07642 -115.13746 2124 ft 67 kts 270°
2026-05-06 16:34 36.07640 -115.14615 2123 ft 135 kts 270°
2026-05-06 16:34 36.07620 -115.16003 2284 ft 178 kts 269°
2026-05-06 16:34 36.07591 -115.17566 3068 ft 188 kts 268°
2026-05-06 16:35 36.07562 -115.19206 3911 ft 191 kts 269°
2026-05-06 16:35 36.07566 -115.20938 4376 ft 215 kts 270°
2026-05-06 16:35 36.07219 -115.23558 4821 ft 245 kts 248°
2026-05-06 16:35 36.06633 -115.24766 5222 ft 251 kts 234°
2026-05-06 16:36 36.05481 -115.26411 5862 ft 257 kts 224°
2026-05-06 16:36 36.03862 -115.27517 6320 ft 278 kts 198°
2026-05-06 16:36 36.01985 -115.28254 7036 ft 287 kts 199°
2026-05-06 16:36 36.00079 -115.29060 7668 ft 290 kts 200°
2026-05-06 16:37 35.98146 -115.29782 8228 ft 293 kts 193°
2026-05-06 16:37 35.96117 -115.30301 9093 ft 300 kts 191°
2026-05-06 16:37 35.94049 -115.30778 10082 ft 305 kts 190°
2026-05-06 16:37 35.91944 -115.31257 10928 ft 310 kts 190°
2026-05-06 16:38 35.89805 -115.31753 11814 ft 315 kts 191°
2026-05-06 16:38 35.87631 -115.32267 12699 ft 320 kts 191°
2026-05-06 16:38 35.85435 -115.32795 13613 ft 324 kts 191°
2026-05-06 16:38 35.83205 -115.33335 14438 ft 328 kts 191°
2026-05-06 16:39 35.80944 -115.33886 15200 ft 334 kts 191°
2026-05-06 16:39 35.78638 -115.34449 15836 ft 346 kts 190°
2026-05-06 16:39 35.76189 -115.35048 16018 ft 371 kts 190°
2026-05-06 16:39 35.73609 -115.35678 16313 ft 390 kts 190°
2026-05-06 16:40 35.70918 -115.36337 16921 ft 399 kts 190°
2026-05-06 16:40 35.68173 -115.37010 17673 ft 404 kts 190°
2026-05-06 16:40 35.65403 -115.37687 18423 ft 408 kts 190°
2026-05-06 16:40 35.62600 -115.38372 19059 ft 413 kts 190°
2026-05-06 16:41 35.59747 -115.38868 19684 ft 416 kts 179°
2026-05-06 16:41 35.56851 -115.38692 20355 ft 417 kts 173°
2026-05-06 16:41 35.53947 -115.38374 21001 ft 421 kts 173°
2026-05-06 16:41 35.51007 -115.38093 21610 ft 426 kts 174°
2026-05-06 16:42 35.48034 -115.37861 22214 ft 431 kts 174°
2026-05-06 16:42 35.45017 -115.37789 22791 ft 438 kts 184°
2026-05-06 16:42 35.42065 -115.38752 23363 ft 444 kts 204°
2026-05-06 16:42 35.39300 -115.40480 23954 ft 447 kts 208°
2026-05-06 16:43 35.36551 -115.42300 24436 ft 451 kts 208°
2026-05-06 16:43 35.33779 -115.44143 24893 ft 455 kts 208°
2026-05-06 16:43 35.31008 -115.45964 25353 ft 459 kts 208°
2026-05-06 16:43 35.28170 -115.47802 25806 ft 463 kts 207°
2026-05-06 16:44 35.25307 -115.49638 26261 ft 467 kts 207°
2026-05-06 16:44 35.22414 -115.51483 26708 ft 470 kts 207°
2026-05-06 16:44 35.19500 -115.53340 27146 ft 474 kts 207°
2026-05-06 16:44 35.16561 -115.55212 27548 ft 478 kts 207°
2026-05-06 16:45 35.13603 -115.57107 27976 ft 481 kts 209°
2026-05-06 16:45 35.10891 -115.59516 28332 ft 485 kts 226°
2026-05-06 16:45 35.08570 -115.62522 28768 ft 487 kts 229°
2026-05-06 16:45 35.06270 -115.65573 29149 ft 490 kts 229°
2026-05-06 16:46 35.03950 -115.68634 29589 ft 492 kts 228°
2026-05-06 16:46 35.01613 -115.71677 30099 ft 492 kts 227°
2026-05-06 16:46 34.99241 -115.74730 30085 ft 497 kts 227°
2026-05-06 16:47 34.94498 -115.80768 30099 ft 489 kts 227°
2026-05-06 16:47 34.89779 -115.86749 30104 ft 490 kts 227°
2026-05-06 16:48 34.85107 -115.92671 30098 ft 492 kts 227°
2026-05-06 16:48 34.80359 -115.98685 30098 ft 493 kts 226°
2026-05-06 16:49 34.75596 -116.04711 30095 ft 494 kts 227°
2026-05-06 16:49 34.70852 -116.10752 30094 ft 493 kts 227°
2026-05-06 16:50 34.66110 -116.16793 30075 ft 493 kts 227°
2026-05-06 16:50 34.61367 -116.22820 30076 ft 492 kts 227°
2026-05-06 16:51 34.56667 -116.28778 30077 ft 492 kts 227°
2026-05-06 16:51 34.51924 -116.34780 29499 ft 494 kts 227°
2026-05-06 16:51 34.49562 -116.37764 28996 ft 487 kts 227°
2026-05-06 16:52 34.47234 -116.40704 28473 ft 481 kts 226°
2026-05-06 16:52 34.44924 -116.43620 27929 ft 476 kts 226°
2026-05-06 16:52 34.42643 -116.46500 27398 ft 472 kts 227°
2026-05-06 16:52 34.40703 -116.49646 26886 ft 463 kts 245°
2026-05-06 16:53 34.39329 -116.53132 26454 ft 456 kts 248°
2026-05-06 16:53 34.37979 -116.56597 25928 ft 452 kts 247°
2026-05-06 16:53 34.36617 -116.60010 25431 ft 449 kts 246°
2026-05-06 16:53 34.35254 -116.63341 24938 ft 446 kts 246°
2026-05-06 16:54 34.33871 -116.66685 24597 ft 439 kts 246°
2026-05-06 16:54 34.32522 -116.69957 24195 ft 434 kts 246°
2026-05-06 16:54 34.31204 -116.73222 23780 ft 430 kts 247°
2026-05-06 16:54 34.29903 -116.76471 23253 ft 428 kts 247°
2026-05-06 16:55 34.28612 -116.79698 22743 ft 425 kts 247°
2026-05-06 16:55 34.27327 -116.82899 22229 ft 421 kts 247°
2026-05-06 16:55 34.26051 -116.86070 21750 ft 417 kts 247°
2026-05-06 16:55 34.24783 -116.89212 21265 ft 414 kts 247°
2026-05-06 16:56 34.23525 -116.92329 20807 ft 411 kts 246°
2026-05-06 16:56 34.22275 -116.95422 20340 ft 408 kts 246°
2026-05-06 16:56 34.21037 -116.98498 19864 ft 405 kts 248°
2026-05-06 16:56 34.20038 -117.01658 19421 ft 399 kts 255°
2026-05-06 16:57 34.19233 -117.04855 18941 ft 395 kts 256°
2026-05-06 16:57 34.18452 -117.08022 18534 ft 391 kts 256°
2026-05-06 16:57 34.17636 -117.11159 17987 ft 391 kts 255°
2026-05-06 16:57 34.16798 -117.14270 17518 ft 388 kts 254°
2026-05-06 16:58 34.15957 -117.17345 17036 ft 385 kts 255°
2026-05-06 16:58 34.15114 -117.20404 16531 ft 384 kts 254°
2026-05-06 16:58 34.14284 -117.23414 16081 ft 381 kts 254°
2026-05-06 16:58 34.13450 -117.26436 15614 ft 378 kts 254°
2026-05-06 16:59 34.12624 -117.29432 15161 ft 375 kts 254°
2026-05-06 16:59 34.11802 -117.32415 14716 ft 373 kts 254°
2026-05-06 16:59 34.10985 -117.35371 14282 ft 370 kts 254°
2026-05-06 16:59 34.10186 -117.38309 13840 ft 366 kts 255°
2026-05-06 17:00 34.09452 -117.41230 13450 ft 361 kts 256°
2026-05-06 17:00 34.08744 -117.44112 13085 ft 355 kts 256°
2026-05-06 17:00 34.08041 -117.46949 12741 ft 351 kts 256°
2026-05-06 17:00 34.07341 -117.49752 12396 ft 346 kts 256°
2026-05-06 17:01 34.06643 -117.52507 12070 ft 341 kts 255°
2026-05-06 17:01 34.05948 -117.55227 11749 ft 337 kts 255°
2026-05-06 17:01 34.05268 -117.57878 11444 ft 333 kts 255°
2026-05-06 17:01 34.04586 -117.60543 11121 ft 332 kts 255°
2026-05-06 17:02 34.03908 -117.63196 10805 ft 329 kts 255°
2026-05-06 17:02 34.03237 -117.65813 10486 ft 323 kts 255°
2026-05-06 17:02 34.02583 -117.68359 10172 ft 312 kts 255°
2026-05-06 17:02 34.02017 -117.70834 9915 ft 301 kts 262°
2026-05-06 17:03 34.01758 -117.73295 9576 ft 298 kts 266°
2026-05-06 17:03 34.01558 -117.75796 9202 ft 295 kts 266°
2026-05-06 17:03 34.01361 -117.78237 8822 ft 296 kts 266°
2026-05-06 17:03 34.01142 -117.80677 8697 ft 287 kts 265°
2026-05-06 17:04 34.00913 -117.83090 8194 ft 288 kts 265°
2026-05-06 17:04 34.00681 -117.85490 7823 ft 289 kts 265°
2026-05-06 17:04 34.00447 -117.87893 7488 ft 288 kts 265°
2026-05-06 17:04 34.00211 -117.90294 7158 ft 288 kts 265°
2026-05-06 17:05 33.99976 -117.92695 6827 ft 287 kts 264°
2026-05-06 17:05 33.99742 -117.95082 6529 ft 286 kts 264°
2026-05-06 17:05 33.99508 -117.97463 6206 ft 285 kts 264°
2026-05-06 17:05 33.99274 -117.99837 5865 ft 285 kts 264°
2026-05-06 17:06 33.99040 -118.02189 5470 ft 279 kts 264°
2026-05-06 17:06 33.98814 -118.04454 5135 ft 272 kts 264°
2026-05-06 17:06 33.98591 -118.06688 4774 ft 265 kts 264°
2026-05-06 17:06 33.98372 -118.08866 4405 ft 258 kts 265°
2026-05-06 17:07 33.98132 -118.10987 4090 ft 252 kts 262°
2026-05-06 17:07 33.97852 -118.13034 3829 ft 243 kts 263°
2026-05-06 17:07 33.97618 -118.15019 3599 ft 236 kts 264°
2026-05-06 17:07 33.97415 -118.16922 3410 ft 220 kts 264°
2026-05-06 17:08 33.97233 -118.18678 3193 ft 203 kts 264°
2026-05-06 17:08 33.97064 -118.20305 3036 ft 187 kts 264°
2026-05-06 17:08 33.96907 -118.21819 3005 ft 180 kts 264°
2026-05-06 17:08 33.96755 -118.23290 2889 ft 172 kts 264°
2026-05-06 17:09 33.96611 -118.24678 2687 ft 163 kts 264°
2026-05-06 17:09 33.96476 -118.25988 2481 ft 152 kts 263°
2026-05-06 17:09 33.96350 -118.27214 2288 ft 151 kts 263°
2026-05-06 17:09 33.96222 -118.28452 2089 ft 147 kts 262°
2026-05-06 17:10 33.96097 -118.29666 1889 ft 145 kts 262°
2026-05-06 17:10 33.95972 -118.30872 1689 ft 145 kts 261°
2026-05-06 17:10 33.95849 -118.32074 1499 ft 145 kts 261°
2026-05-06 17:10 33.95725 -118.33281 1303 ft 145 kts 261°
2026-05-06 17:11 33.95602 -118.34480 1104 ft 143 kts 262°
2026-05-06 17:11 33.95480 -118.35666 905 ft 143 kts 262°
2026-05-06 17:11 33.95358 -118.36859 702 ft 145 kts 263°
2026-05-06 17:11 33.95234 -118.38068 518 ft 146 kts 263°
2026-05-06 17:12 33.95111 -118.39293 286 ft 145 kts 263°
2026-05-06 17:12 33.94989 -118.40466 131 ft 135 kts 263°
2026-05-06 17:12 33.94885 -118.41464 125 ft 100 kts 262°
2026-05-06 17:12 33.94821 -118.42085 125 ft 37 kts 263°
2026-05-06 17:13 33.94756 -118.42219 121 ft 17 kts 226°
2026-05-06 17:13 33.94705 -118.42234 122 ft 0 kts 163°
2026-05-06 17:16 33.94704 -118.42233 122 ft 1 kts 157°
2026-05-06 17:16 33.94693 -118.42194 122 ft 7 kts 97°
2026-05-06 17:16 33.94695 -118.42125 123 ft 9 kts 83°
2026-05-06 17:17 33.94705 -118.42047 123 ft 9 kts 83°
2026-05-06 17:17 33.94712 -118.41965 125 ft 12 kts 83°
2026-05-06 17:17 33.94723 -118.41843 125 ft 16 kts 83°
2026-05-06 17:17 33.94738 -118.41711 125 ft 16 kts 82°
2026-05-06 17:18 33.94750 -118.41585 122 ft 15 kts 85°
2026-05-06 17:18 33.94759 -118.41504 123 ft 14 kts 82°
2026-05-06 17:18 33.94738 -118.41393 125 ft 14 kts 130°
2026-05-06 17:18 33.94692 -118.41356 122 ft 0 kts 162°
2026-05-06 17:19 33.94687 -118.41349 121 ft 4 kts 131°
2026-05-06 17:19 33.94687 -118.41298 123 ft 11 kts 79°
2026-05-06 17:19 33.94724 -118.41153 122 ft 22 kts 74°
2026-05-06 17:19 33.94735 -118.41066 123 ft 0 kts 88°
2026-05-06 17:20 33.94736 -118.41058 123 ft 4 kts 88°
2026-05-06 17:20 33.94720 -118.41030 121 ft 6 kts 174°
2026-05-06 17:20 33.94696 -118.41033 123 ft 0 kts 188°
2026-05-06 17:20 33.94695 -118.41033 123 ft 0 kts 188°